Location: Newark
(49.8753°N, 23.0797°E)
Time: 06:28:22
(UTC+00:00)

Tianhe-1 - Visible Passes

Search period start: 18 June 2021 00:00
Search period end: 28 June 2021 00:00
Orbit: 375 x 386 km, 41.5° (Epoch: 18 June)

Date Brightness Start Highest point End Pass type
(mag) Time Alt. Az. Time Alt. Az. Time Alt. Az.
23 Jun 3.2 01:27:07 10° SSW 01:28:50 14° SSE 01:30:34 10° SE visible
24 Jun 3.5 00:28:21 11° SSE 00:28:21 11° SSE 00:28:53 10° SE visible
25 Jun 2.9 01:02:05 13° SSW 01:03:21 16° S 01:05:23 10° SE visible
26 Jun 3.5 00:03:45 12° SE 00:03:45 12° SE 00:04:13 10° SE visible
26 Jun 2.8 01:36:24 10° SW 01:38:38 18° S 01:40:51 10° SE visible
27 Jun 2.7 00:37:36 17° S 00:37:49 18° S 00:40:01 10° SE visible
